[[{"header":{"parameterUnit":"m.s-1","parameterCategory":1,"la1":30.2991,"la2":30.254,"lo1":-89.0895,"lo2":-89.0444,"dy":0.0017,"dx":0.0017,"nx":28,"ny":28,"refTime":"2025-11-28T09:00:00:Z","depth":0,"parameterNumber":2,"parameterNumberName":"U-component_of_WINDS"},"data":[0,0,0,0,0,0,0,0,0,0,0,0,0,0,0,0,0,0,0,0,0,0,0,0,0,0,0,0,0,0,0,0,0,0,0,0,0,0,0,0,0,0,0,0,0,0,0,0,0,0,0,0,0,0,0,0,0,0,-6.6598,-6.6599,0,-6.6726,-6.6728,-6.6729,-6.6675,-6.6672,-6.6669,-6.6666,-6.6796,-6.6802,-6.6808,0,0,0,0,0,0,0,0,0,0,0,0,0,-6.6304,-6.631,-6.6598,-6.6599,-6.6601,-6.6726,-6.6728,-6.673,-6.6675,-6.6672,-6.6668,-6.6664,-6.6794,-6.6801,-6.6809,0,0,0,0,0,0,0,0,0,0,0,0,0,-6.6432,-6.6312,-6.6597,-6.6589,-6.659,-6.6726,-6.6728,-6.673,-6.6676,-6.6671,-6.6667,-6.6662,-6.6791,-6.68,-6.681,-6.6961,0,0,-6.6839,-6.6843,0,0,0,0,0,0,0,0,-6.6425,-6.6443,-6.6589,-6.659,-6.6591,-6.668,-6.6672,-6.6808,-6.6677,-6.6643,-6.6666,-6.666,-6.6761,-6.6772,-6.6807,-6.6967,-6.6973,-6.684,-6.6845,-6.685,-6.6852,0,0,0,0,0,0,0,-6.6416,-6.6437,-6.6648,-6.6591,-6.6592,-6.6578,-6.6591,-6.6697,-6.6726,-6.6646,-6.6642,-6.6658,-6.676,-6.6798,-6.6809,-6.6975,-6.6839,-6.6848,-6.6854,-6.6857,-6.7264,-6.7269,0,0,0,0,0,0,-6.6407,-6.643,-6.6644,-6.6652,-6.6495,-6.6587,-6.6602,-6.6656,-6.6725,-6.6731,-6.6662,-6.6655,-6.6784,-6.6798,-6.6814,-6.6993,-6.6849,-6.6858,-6.6864,-6.7259,-6.7265,-6.7271,0,0,0,0,0,0,-6.6401,-6.6427,-6.6639,-6.654,-6.6566,-6.6597,-6.6658,-6.6661,-6.6698,-6.6737,-6.6742,-6.6695,-6.6781,-6.68,-6.6925,-6.6997,-6.6863,-6.6871,-6.7253,-6.7261,-6.7268,-6.7354,0,0,0,0,0,0,-6.6393,-6.6425,-6.6483,-6.6542,-6.6572,-6.6748,-6.6663,-6.6667,-6.6715,-6.6707,-6.6769,-6.6775,-6.6778,-6.6911,-6.6934,-6.7007,-6.6879,-6.7247,-6.7257,-6.7266,-6.7345,-6.7364,-6.738,0,0,0,0,0,-6.6383,-6.6502,-6.6486,-6.6512,-6.6645,-6.6753,-6.677,-6.6771,-6.6721,-6.6779,-6.6804,-6.6773,-6.6986,-6.6924,-6.695,-6.7027,-6.7242,-6.7254,-6.7265,-6.7337,-6.736,-6.738,0,0,0,0,0,0,-6.645,-6.651,-6.6492,-6.6635,-6.6689,-6.6743,-6.6816,-6.6796,-6.6865,-6.6855,-6.6854,-6.6869,-6.6997,-6.7025,-6.6954,-6.7176,-6.7106,-6.7124,-6.7152,-6.7174,-6.7192,-6.718,-6.6887,0,0,0,0,0,-6.6482,-6.6565,-6.6613,-6.6734,-6.6762,-6.6785,-6.6832,-6.6829,-6.6885,-6.6907,-6.6941,-6.6996,-6.7075,-6.7127,-6.7203,-6.7351,-6.7362,-6.7417,-6.7434,-6.7448,-6.7462,-6.7539,-6.7563,-6.7309,-6.7308,-6.7308,0,0,-6.6547,-6.659,-6.6643,-6.6748,-6.679,-6.6874,-6.6804,-6.6897,-6.696,-6.6921,-6.7039,-6.7067,-6.7129,-6.7265,-6.7326,-6.7292,-6.7535,-6.7463,-6.7474,-6.748,-6.7554,-6.7578,-6.7599,-6.7316,-6.7315,-6.7314,0,0,-6.6709,-6.6752,-6.6856,-6.6899,-6.6963,-6.6978,-6.7004,-6.7061,-6.7078,-6.7198,-6.717,-6.7245,-6.7382,-6.7426,-6.7466,-6.7647,-6.762,-6.7672,-6.7761,-6.7837,-6.7857,-6.7875,-6.7936,-6.7958,-6.7686,-6.7686,-6.7686,0,-6.6782,-6.6909,-6.6912,-6.7007,-6.7053,-6.7024,-6.7128,-6.717,-6.7256,-6.7288,-6.725,-6.742,-6.746,-6.7604,-6.7648,-6.7684,-6.771,-6.7662,-6.7854,-6.7872,-6.7889,-6.7946,-6.797,-6.7692,-6.7691,-6.7691,-6.769,0,-6.6994,-6.7083,-6.7159,-6.7242,-6.7298,-6.7397,-6.7414,-6.747,-6.7464,-6.7482,-6.7604,-6.7651,-6.7734,-6.7769,-6.7764,-6.7913,-6.789,-6.7854,-6.7782,-6.7918,-6.7972,-6.7995,-6.77,-6.7698,-6.7696,-6.7695,0,0,-6.7197,-6.7282,-6.731,-6.7346,-6.7416,-6.7484,-6.7583,-6.7664,-6.7711,-6.7773,-6.7853,-6.7971,-6.7937,-6.7983,-6.7983,-6.805,-6.8186,-6.8005,-6.8006,-6.8033,-6.835,-6.8373,-6.8399,-6.8171,-6.8175,-6.8179,-6.8343,0,-6.7361,-6.7532,-6.7538,-6.7695,-6.7775,-6.775,-6.7835,-6.7887,-6.7908,-6.7979,-6.8003,-6.8084,-6.8036,-6.8063,-6.8129,-6.8155,-6.8249,-6.8144,-6.8243,-6.8246,-6.8223,-6.8428,-6.8453,-6.8606,-6.8365,-6.8369,-6.8372,0,-6.7574,-6.7641,-6.7805,-6.7862,-6.7896,-6.7973,-6.8048,-6.8117,-6.8175,-6.8186,-6.8238,-6.8228,-6.8328,-6.8258,-6.8393,-6.8322,-6.8364,-6.8383,-6.8389,-6.8394,-6.8313,-6.8434,-6.8656,-6.8677,-6.8406,-6.8403,-6.8401,0,-6.77,-6.7833,-6.7947,-6.798,-6.8051,-6.8105,-6.8137,-6.8191,-6.8239,-6.8306,-6.8337,-6.8415,-6.8456,-6.8516,-6.8526,-6.8475,-6.8662,-6.8593,-6.8671,-6.8671,-6.8707,-6.8704,-6.8933,-6.8743,-6.8742,-6.8742,-6.8741,0,-6.7879,-6.798,-6.8005,-6.8075,-6.8186,-6.8193,-6.8304,-6.8332,-6.838,-6.8454,-6.8439,-6.8509,-6.8522,-6.8595,-6.8605,-6.8714,-6.8734,-6.8744,-6.8744,-6.8742,-6.874,-6.8765,-6.8753,-6.8748,-6.8747,-6.8745,-6.8744,0,-6.8037,-6.8059,-6.8181,-6.8239,-6.8256,-6.8335,-6.8384,-6.8451,-6.8471,-6.8566,-6.8588,-6.862,-6.8705,-6.8723,-6.8825,-6.8831,-6.896,-6.8952,-6.8939,-6.8937,-6.9013,-6.9003,-6.9262,-6.9295,-6.9087,-6.9089,-6.9091,0,-6.8147,-6.8224,-6.829,-6.8339,-6.8373,-6.8453,-6.8502,-6.8513,-6.8565,-6.8638,-6.8695,-6.8779,-6.8845,-6.8983,-6.9014,-6.9091,-6.9083,-6.9169,-6.9094,-6.9089,-6.9079,-6.9072,-6.9078,-6.9181,-6.9183,-6.9185,-6.9186,0,-6.8339,-6.8346,-6.8418,-6.8495,-6.8554,-6.8615,-6.8673,-6.8714,-6.8732,-6.8792,-6.8878,-6.893,-6.9034,-6.9116,-6.9194,-6.9226,-6.9209,-6.9211,-6.9232,-6.9228,-6.9215,-6.9219,-6.8973,-6.9203,-6.9201,-6.92,-6.9199,-6.9198,-6.8474,-6.854,-6.8596,-6.8677,-6.8722,-6.8776,-6.8841,-6.887,-6.8942,-6.9027,-6.903,-6.9124,-6.918,-6.9283,-6.932,-6.9393,-6.9366,-6.9398,-6.9406,-6.9412,-6.9417,-6.9208,-6.9408,-6.9408,-6.9407,-6.9407,-6.9407,0,-6.8661,-6.8697,-6.8771,-6.8852,-6.8915,-6.8896,-6.8959,-6.9013,-6.9096,-6.915,-6.9217,-6.9316,-6.9396,-6.9435,-6.9514,-6.9565,-6.9559,-6.9585,-6.9579,-6.9586,-6.9438,-6.941,-6.9589,-6.9589,-6.9589,-6.9588,-6.9588,-6.9588,-6.8765,-6.8875,-6.8889,-6.9021,-6.9056,-6.9147,-6.9184,-6.9234,-6.9277,-6.9389,-6.9455,-6.9481,-6.9529,-6.9611,-6.9684,-6.9693,-6.9721,-6.975,-6.9755,-6.9616,-6.9597,-6.9579,-6.9552,-6.9757,-6.9758,-6.9896,-6.9898,-6.9899]},{"header":{"parameterUnit":"m.s-1","parameterCategory":1,"la1":30.2991,"la2":30.254,"lo1":-89.0895,"lo2":-89.0444,"dy":0.0017,"dx":0.0017,"nx":28,"ny":28,"refTime":"2025-11-28T09:00:00:Z","depth":0,"parameterNumber":3,"parameterNumberName":"V-component_of_WINDS"},"data":[0,0,0,0,0,0,0,0,0,0,0,0,0,0,0,0,0,0,0,0,0,0,0,0,0,0,0,0,0,0,0,0,0,0,0,0,0,0,0,0,0,0,0,0,0,0,0,0,0,0,0,0,0,0,0,0,0,0,4.2547,4.2547,0,4.2512,4.2512,4.2511,4.2342,4.2338,4.2334,4.233,4.2296,4.2299,4.2302,0,0,0,0,0,0,0,0,0,0,0,0,0,4.2471,4.2473,4.2548,4.2547,4.2547,4.2512,4.2512,4.2511,4.2343,4.2338,4.2333,4.2328,4.2295,4.2299,4.2302,0,0,0,0,0,0,0,0,0,0,0,0,0,4.2477,4.2474,4.2548,4.2458,4.245,4.2512,4.2512,4.2511,4.2344,4.2338,4.2332,4.2326,4.2294,4.2298,4.2302,4.2449,0,0,4.2315,4.2317,0,0,0,0,0,0,0,0,4.2477,4.248,4.2472,4.2465,4.2455,4.2425,4.2472,4.249,4.2345,4.2384,4.233,4.2323,4.2344,4.2344,4.235,4.2447,4.2445,4.2316,4.2318,4.232,4.2321,0,0,0,0,0,0,0,4.2477,4.248,4.2533,4.2472,4.2462,4.2421,4.2415,4.2475,4.2398,4.238,4.2368,4.2366,4.2338,4.2347,4.2348,4.2445,4.2316,4.2319,4.2322,4.2324,4.2658,4.2664,0,0,0,0,0,0,4.2488,4.2481,4.2535,4.2532,4.2451,4.2427,4.242,4.2441,4.2397,4.2385,4.2371,4.2358,4.2342,4.2344,4.2347,4.2513,4.232,4.2324,4.2326,4.2652,4.266,4.2667,0,0,0,0,0,0,4.2487,4.2495,4.2536,4.2503,4.2505,4.2435,4.2459,4.2444,4.2451,4.239,4.2376,4.2393,4.2338,4.2341,4.2424,4.2509,4.2326,4.233,4.2645,4.2654,4.2663,4.2848,0,0,0,0,0,0,4.2486,4.2495,4.255,4.2506,4.2508,4.2614,4.2464,4.2447,4.2459,4.2442,4.2407,4.2396,4.2333,4.2419,4.2428,4.2512,4.2333,4.2637,4.2649,4.266,4.2834,4.2863,4.2888,0,0,0,0,0,4.2484,4.2604,4.2553,4.2561,4.2574,4.2619,4.262,4.2545,4.2467,4.2521,4.2481,4.2397,4.25,4.2429,4.2438,4.2524,4.2631,4.2645,4.2659,4.2822,4.2857,4.2887,0,0,0,0,0,0,4.266,4.2597,4.254,4.2649,4.2641,4.259,4.2656,4.2585,4.2599,4.2583,4.249,4.2483,4.258,4.2561,4.2483,4.2663,4.2551,4.2568,4.2671,4.2704,4.2731,4.2732,4.2337,0,0,0,0,0,4.2712,4.2753,4.2696,4.2798,4.2797,4.2728,4.2745,4.2688,4.2675,4.2671,4.2638,4.263,4.266,4.2681,4.2706,4.2832,4.2821,4.2896,4.2923,4.2945,4.296,4.3024,4.3056,4.2714,4.2714,4.2713,0,0,4.2819,4.2789,4.2821,4.2833,4.2819,4.2864,4.2726,4.278,4.2812,4.2679,4.2755,4.2731,4.2716,4.2821,4.2866,4.2808,4.3053,4.2963,4.2981,4.2984,4.3042,4.3074,4.3103,4.2723,4.2722,4.272,0,0,4.3036,4.3019,4.3101,4.309,4.3072,4.3025,4.3046,4.3007,4.2985,4.306,4.2961,4.2999,4.3053,4.3046,4.305,4.3266,4.3188,4.3277,4.3415,4.3479,4.3506,4.3529,4.3604,4.3633,4.3292,4.3293,4.3293,0,4.3171,4.3234,4.3152,4.3212,4.322,4.3102,4.3184,4.3179,4.317,4.3178,4.3114,4.3179,4.3161,4.3262,4.3315,4.3322,4.3342,4.3279,4.3508,4.3531,4.3552,4.3622,4.3651,4.3304,4.3302,4.3301,4.33,0,4.34,4.3446,4.3515,4.3508,4.3524,4.3595,4.3524,4.3551,4.3493,4.3454,4.3532,4.3506,4.3523,4.3543,4.3488,4.3637,4.3601,4.3525,4.3409,4.3596,4.3661,4.3687,4.3319,4.3315,4.3312,4.3309,0,0,4.3725,4.3672,4.3699,4.3694,4.3666,4.3699,4.3766,4.3781,4.3805,4.3804,4.3856,4.3906,4.3834,4.3839,4.3782,4.3838,4.4009,4.3754,4.3752,4.38,4.417,4.4225,4.4258,4.3959,4.3964,4.3968,4.417,0,4.393,4.4038,4.3967,4.4087,4.4128,4.4018,4.4075,4.4065,4.4031,4.4061,4.4023,4.4058,4.3963,4.3964,4.4015,4.3978,4.4081,4.3962,4.4006,4.4008,4.401,4.4292,4.4351,4.4543,4.4195,4.4199,4.4202,0,4.4183,4.4192,4.4316,4.4278,4.4293,4.4346,4.4354,4.4385,4.4371,4.4342,4.4348,4.4277,4.434,4.4229,4.4314,4.4235,4.4249,4.4234,4.4239,4.4238,4.4115,4.4296,4.4603,4.4631,4.4242,4.4239,4.4236,0,4.4404,4.4447,4.4526,4.4526,4.4486,4.4525,4.4511,4.4491,4.4505,4.4513,4.4521,4.4537,4.4546,4.456,4.4496,4.4422,4.4589,4.4473,4.4566,4.4568,4.4604,4.4602,4.4915,4.4619,4.4618,4.4618,4.4617,0,4.4639,4.4718,4.4625,4.4673,4.4759,4.4678,4.4766,4.474,4.4723,4.4765,4.4673,4.4714,4.4628,4.4661,4.4612,4.4689,4.4694,4.4672,4.4658,4.4679,4.4682,4.4685,4.4669,4.4625,4.4624,4.4622,4.4621,0,4.4899,4.484,4.4918,4.4874,4.4865,4.493,4.4892,4.4935,4.4896,4.495,4.4958,4.4896,4.493,4.4868,4.4895,4.4862,4.4969,4.4936,4.4974,4.4962,4.5058,4.5049,4.5381,4.542,4.5102,4.5106,4.5108,0,4.5051,4.5109,4.5071,4.5092,4.5082,4.5117,4.5131,4.5054,4.5072,4.5061,4.5106,4.5132,4.5148,4.5209,4.5166,4.5186,4.5151,4.5266,4.5153,4.5172,4.5149,4.5145,4.515,4.5288,4.5292,4.5295,4.5298,0,4.5326,4.5294,4.5316,4.5329,4.5348,4.5354,4.5354,4.5377,4.5296,4.5321,4.5354,4.5368,4.5394,4.5421,4.5432,4.5417,4.5344,4.5334,4.5356,4.5377,4.5395,4.5384,4.5034,4.5326,4.5323,4.5321,4.532,4.5318,4.5534,4.5581,4.5561,4.5589,4.5581,4.5583,4.5621,4.5587,4.5613,4.5627,4.5582,4.5626,4.5611,4.5617,4.561,4.5644,4.5592,4.5625,4.5633,4.5641,4.5656,4.5393,4.5646,4.5645,4.5644,4.5643,4.5643,0,4.5802,4.5784,4.5811,4.5814,4.5836,4.5766,4.5763,4.5787,4.5826,4.5818,4.5836,4.5875,4.5901,4.5862,4.5881,4.5916,4.5883,4.5923,4.5918,4.5916,4.5701,4.5679,4.5949,4.5949,4.5949,4.5949,4.5949,4.5949,4.5944,4.6018,4.5984,4.6054,4.6035,4.6076,4.608,4.6082,4.6075,4.6122,4.6143,4.6117,4.6097,4.6114,4.6135,4.6123,4.6134,4.6185,4.6162,4.5961,4.5931,4.5902,4.5881,4.6189,4.6189,4.6373,4.6374,4.6376]}]]